• Join FlightAware (Why Join?)
  • Login
  • US Flag 
02:18AM EDT


 

Airport Tracker/Info


-or-


 

Live Flight TrackerFlight Track Log ✈ AFL150 ✈ 08-May-2014 ✈ UUEE / SVO - MUHA / HAV

Flight Track Log - Related Links

Times and Time Zones

All times are in EDT time to prevent confusion due to time zone crossing. See the AFL150 flight status page for this flight to view local times or setup timezone preferences in your user account.

Time Position Orientation Groundspeed Altitude Reporting Facility
EDT Latitude Longitude Course Direction KTS MPH feet Rate Location/Type
06:38AM 56.3405 36.7891 319° Northwest  Level FlightAware Approximate
06:39AM 56.4350 36.6370 318° Northwest  Level FlightAware Approximate
06:40AM 56.5293 36.4842 318° Northwest  Level FlightAware Approximate
06:41AM 56.6234 36.3306 318° Northwest  Level FlightAware Approximate
06:42AM 56.7173 36.1763 318° Northwest  Level FlightAware Approximate
06:43AM 56.8110 36.0211 318° Northwest  Level FlightAware Approximate
06:44AM 56.9045 35.8652 318° Northwest  Level FlightAware Approximate
06:45AM 56.9979 35.7085 318° Northwest  Level FlightAware Approximate
06:46AM 57.0910 35.5510 317° Northwest  Level FlightAware Approximate
06:47AM 57.1840 35.3927 317° Northwest  Level FlightAware Approximate
06:48AM 57.2767 35.2337 317° Northwest  Level FlightAware Approximate
06:49AM 57.3692 35.0738 317° Northwest  Level FlightAware Approximate
06:50AM 57.4616 34.9131 317° Northwest  Level FlightAware Approximate
06:51AM 57.4821 34.8713 314° West  Level FlightAware Approximate
06:52AM 57.5697 34.7011 314° West  Level FlightAware Approximate
06:53AM 57.6570 34.5301 314° West  Level FlightAware Approximate
06:54AM 57.7441 34.3583 314° West  Level FlightAware Approximate
06:55AM 57.8310 34.1857 313° West  Level FlightAware Approximate
06:56AM 57.9176 34.0122 313° West  Level FlightAware Approximate
06:57AM 58.0040 33.8379 313° West  Level FlightAware Approximate
06:58AM 58.0901 33.6628 313° West  Level FlightAware Approximate
06:59AM 58.1760 33.4868 313° West  Level FlightAware Approximate
07:00AM 58.2617 33.3100 313° West  Level FlightAware Approximate
07:01AM 58.3471 33.1323 313° West  Level FlightAware Approximate
07:02AM 58.4323 32.9537 312° West  Level FlightAware Approximate
07:02AM 56.4620 32.2180 279° West 417 480 34,000  Level FlightAware ADS-B (EVDA / DGP)
07:02AM 56.4695 32.1293 279° West 418 481 34,000  Level FlightAware ADS-B (EVDA / DGP)
07:04AM 56.4965 31.8013 278° West 418 481 34,000  Level FlightAware ADS-B (EVDA / DGP)
07:05AM 56.5180 31.5328 278° West 419 482 34,000  Level FlightAware ADS-B (EVDA / DGP)
07:06AM 56.5322 31.3516 279° West 420 483 34,000  Level FlightAware ADS-B (EVDA / DGP)
07:07AM 56.5604 31.1489 290° West 427 491 34,000  Level FlightAware ADS-B (EVDA / DGP)
07:08AM 56.6162 30.9453 303° West 434 499 34,000  Level FlightAware ADS-B (EVDA / DGP)
07:09AM 56.6926 30.7708 311° West 441 507 34,000  Level FlightAware ADS-B (EVDA / DGP)
07:10AM 56.7698 30.5782 305° West 437 503 34,000  Level FlightAware ADS-B (EVDA / DGP)
07:11AM 56.8462 30.3755 304° West 438 504 34,000  Level FlightAware ADS-B (EVDA / DGP)
07:12AM 56.9148 30.1892 304° West 440 506 34,000  Level FlightAware ADS-B (EVDA / DGP)
07:13AM 56.9809 30.0083 304° West 439 505 34,000  Level FlightAware ADS-B (EVDA / DGP)
07:14AM 57.0496 29.8187 304° West 437 503 34,000  Level FlightAware ADS-B (EVDA / DGP)
07:15AM 57.1136 29.6408 303° West 438 504 34,000  Level FlightAware ADS-B (EVDA / DGP)
07:16AM 57.1819 29.4495 303° West 440 506 34,000  Level FlightAware ADS-B (EVDA / DGP)
07:17AM 57.2493 29.2593 303° West 439 505 34,000  Level FlightAware ADS-B (EVDA / DGP)
07:18AM 57.3154 29.0713 303° West 437 503 34,000  Level FlightAware ADS-B (EVDA / DGP)
07:19AM 57.3801 28.8861 303° West 440 506 34,000  Level FlightAware ADS-B (EVDA / DGP)
07:20AM 57.4465 28.6943 303° West 442 509 34,000  Level FlightAware ADS-B (EVDA / DGP)
07:21AM 57.5126 28.5020 302° West 444 511 34,000  Level FlightAware ADS-B (EVDA / DGP)
07:22AM 57.5754 28.3177 302° West 446 513 34,000  Level FlightAware ADS-B (EVDA / DGP)
07:23AM 57.6362 28.1383 302° West 447 514 34,000  Level FlightAware ADS-B (EVDA / DGP)
07:24AM 57.6969 27.9581 302° West 448 516 34,000  Level FlightAware ADS-B (EVDA / DGP)
07:25AM 57.7721 27.7322 302° West 450 518 34,000  Level FlightAware ADS-B (EVDA / DGP)
07:26AM 57.8034 27.6378 302° West 450 518 34,000  Level FlightAware ADS-B (EVDA / DGP)
07:27AM 57.8577 27.4288 290° West 439 505 34,000  Level FlightAware ADS-B (EVDA / DGP)
07:28AM 57.9013 27.2109 291° West 439 505 34,000  Level FlightAware ADS-B (EVDA / DGP)
07:29AM 57.9495 26.9713 291° West 440 506 34,000  Level FlightAware ADS-B (EVDA / DGP)
07:30AM 57.9890 26.7730 290° West 440 506 34,000  Level FlightAware ADS-B (EVDA / DGP)
07:31AM 58.0315 26.5567 290° West 440 506 34,000  Level FlightAware ADS-B (EVDA / DGP)
07:32AM 58.0769 26.3231 290° West 442 509 34,000  Level FlightAware ADS-B (EVDA / DGP)
07:33AM 58.1217 26.0895 290° West 441 507 34,000  Level FlightAware ADS-B (EVDA / DGP)
07:34AM 58.1637 25.8688 290° West 444 511 34,000  Level FlightAware ADS-B (EFHN)
07:35AM 58.2042 25.6528 289° West 446 513 34,000  Level FlightAware ADS-B (EVDA / DGP)
07:36AM 58.2463 25.4260 289° West 447 514 34,000  Level FlightAware ADS-B (EVDA / DGP)
07:37AM 58.2871 25.2034 289° West 446 513 34,000  Level FlightAware ADS-B (EFHN)
07:37AM 58.3147 25.0515 289° West 445 512 34,000  Level FlightAware ADS-B (EFHN)
07:38AM 58.3358 24.9344 289° West 445 512 34,000  Level FlightAware ADS-B (EVDA / DGP)
07:39AM 58.3652 24.7699 289° West 447 514 34,000  Level FlightAware ADS-B (EVDA / DGP)
07:40AM 58.3991 24.5782 289° West 447 514 34,000  Level FlightAware ADS-B (EFHN)
07:40AM 58.4196 24.4620 289° West 448 516 34,000  Level FlightAware ADS-B (EFHN)
07:40AM 58.4039 24.5510 287° West 447 514 34,000  Level FlightAware ADS-B (EVDA / DGP)
07:41AM 58.4338 24.3737 286° West 447 514 34,000  Level FlightAware ADS-B (EFHN)
07:42AM 58.4866 24.0170 286° West 446 513 34,000  Level FlightAware ADS-B (EFHN)
07:43AM 58.5151 23.8267 286° West 446 513 34,000  Level FlightAware ADS-B (EFHN)
07:44AM 58.5435 23.6337 286° West 446 513 34,000  Level FlightAware ADS-B (EFHN)
07:44AM 58.5662 23.4774 286° West 446 513 34,000  Level FlightAware ADS-B (EFHN)
07:45AM 58.5866 23.3361 285° West 445 512 34,000  Level FlightAware ADS-B (EFHN)
07:46AM 58.6213 23.0923 285° West 446 513 34,000  Level FlightAware ADS-B (EFHN)
07:47AM 58.6428 22.9402 285° West 447 514 34,000  Level FlightAware ADS-B (EFHN)
07:47AM 58.6642 22.7859 285° West 448 516 34,000  Level FlightAware ADS-B (EFHN)
07:48AM 58.6837 22.6447 285° West 452 520 34,000  Level FlightAware ADS-B (EFHN)
07:49AM 58.6999 22.5261 285° West 454 522 34,000  Level FlightAware ADS-B (EFHN)
07:49AM 58.7167 22.4025 285° West 456 525 34,000  Level FlightAware ADS-B (EFHN)
07:50AM 58.7333 22.2797 284° West 457 526 34,000  Level FlightAware ADS-B (EFHN)
07:50AM 58.7590 22.0882 284° West 458 527 34,000  Level FlightAware ADS-B (EFHN)
07:51AM 58.7837 21.9001 284° West 458 527 34,000  Level FlightAware ADS-B (EFHN)
07:52AM 58.8002 21.7736 284° West 457 526 34,000  Level FlightAware ADS-B (EFHN)
07:53AM 58.8424 21.4448 284° West 455 524 34,000  Level FlightAware ADS-B (EFHN)
07:56AM 58.9541 20.7352 293° West 458 527 34,000  Level FlightAware ADS-B (EFHN)
07:57AM 58.9818 20.5701 287° West 455 524 34,000  Level FlightAware ADS-B (EFHN)
07:59AM 59.0539 20.1205 287° West 459 528 34,000  Level FlightAware ADS-B (EFHN)
08:00AM 59.0806 19.9511 287° West 459 528 34,000  Level FlightAware ADS-B (ESKB)
08:00AM 59.1044 19.7984 287° West 458 527 34,000  Level FlightAware ADS-B (ESKB)
08:01AM 59.1295 19.6357 287° West 458 527 34,000  Level FlightAware ADS-B (ESKB)
08:02AM 59.1380 19.5802 287° West 459 528 34,000  Level FlightAware ADS-B (ESKB)
08:02AM 59.1842 19.2762 286° West 460 529 34,000  Level FlightAware ADS-B (ESKB)
08:03AM 59.2120 19.0910 286° West 459 528 34,000  Level FlightAware ADS-B (ESKB)
08:04AM 59.2363 18.9254 286° West 459 528 34,000  Level FlightAware ADS-B (ESKB)
08:05AM 59.2603 18.7619 286° West 460 529 34,000  Level FlightAware ADS-B (ESKB)
08:05AM 59.2833 18.6047 286° West 459 528 34,000  Level FlightAware ADS-B (ESKB)
08:06AM 59.3072 18.4382 286° West 459 528 34,000  Level FlightAware ADS-B (ESKB)
08:07AM 59.3296 18.2809 286° West 458 527 34,000  Level FlightAware ADS-B (ESKB)
08:07AM 59.3487 18.1456 285° West 459 528 34,000  Level FlightAware ADS-B (ESKB)
08:08AM 59.3736 17.9671 285° West 460 529 34,000  Level FlightAware ADS-B (ESKB)
08:09AM 59.3968 17.7991 285° West 461 531 34,000  Level FlightAware ADS-B (ESKB)
08:09AM 59.4176 17.6467 285° West 463 533 34,000  Level FlightAware ADS-B (ESKB)
08:10AM 59.4399 17.4824 285° West 463 533 34,000  Level FlightAware ADS-B (ESKB)
08:11AM 59.4623 17.3144 285° West 463 533 34,000  Level FlightAware ADS-B (ESKB)
08:11AM 59.4846 17.1466 285° West 463 533 34,000  Level FlightAware ADS-B (ESKB)
08:12AM 59.5160 16.9070 284° West 463 533 34,000  Level FlightAware ADS-B (ESKB)
08:13AM 59.5373 16.7416 284° West 464 534 34,000  Level FlightAware ADS-B (ESKB)
08:14AM 59.5574 16.5838 284° West 464 534 34,000  Level FlightAware ADS-B (ESKB)
08:14AM 59.5777 16.4234 284° West 463 533 34,000  Level FlightAware ADS-B (ESKB)
08:15AM 59.5960 16.2763 283° West 460 529 34,000  Level FlightAware ADS-B
08:16AM 59.6195 16.0854 283° West 460 529 34,000  Level FlightAware ADS-B
08:16AM 59.6392 15.9239 284° West 463 533 34,000  Level FlightAware ADS-B (ESKB)
08:17AM 59.6497 15.8374 283° West 461 531 34,000  Level FlightAware ADS-B
08:17AM 59.6656 15.7051 282° West 462 532 34,000  Level FlightAware ADS-B
08:18AM 59.6877 15.5187 282° West 463 533 34,000  Level FlightAware ADS-B
08:19AM 59.7067 15.3566 283° West 465 535 34,000  Level FlightAware ADS-B (ESKB)
08:19AM 59.7245 15.2031 282° West 464 534 34,000  Level FlightAware ADS-B
08:20AM 59.7391 15.0758 282° West 463 533 34,000  Level FlightAware ADS-B
08:20AM 59.7532 14.9521 283° West 464 534 34,000  Level FlightAware ADS-B
08:21AM 59.7679 14.8208 282° West 464 534 34,000  Level FlightAware ADS-B
08:21AM 59.7825 14.6892 282° West 464 534 34,000  Level FlightAware ADS-B
08:22AM 59.8034 14.4998 282° West 465 535 34,000  Level FlightAware ADS-B
08:22AM 59.8175 14.3696 282° West 464 534 34,000  Level FlightAware ADS-B
08:23AM 59.8369 14.1894 282° West 463 533 34,000  Level FlightAware ADS-B
08:24AM 59.8510 14.0568 282° West 463 533 34,000  Level FlightAware ADS-B
08:24AM 59.8696 13.8794 281° West 462 532 34,000  Level FlightAware ADS-B
08:25AM 59.8834 13.7453 281° West 463 533 34,000  Level FlightAware ADS-B
08:25AM 59.8966 13.6170 281° West 463 533 34,000  Level FlightAware ADS-B
08:26AM 59.9097 13.4878 280° West 464 534 34,000  Level FlightAware ADS-B
08:27AM 59.9230 13.3555 280° West 464 534 34,000  Level FlightAware ADS-B
08:27AM 59.9357 13.2277 280° West 464 534 34,000  Level FlightAware ADS-B
08:28AM 59.9491 13.0914 280° West 464 534 34,000  Level FlightAware ADS-B
08:28AM 59.9622 12.9570 280° West 464 534 34,000  Level FlightAware ADS-B
08:30AM 60.0364 12.4288 287° West 467 537 34,000  Level FlightAware ADS-B
08:31AM 60.0462 12.3776 286° West  Level Estimated
08:31AM 60.0587 12.2764 286° West 467 537 34,000  Level FlightAware ADS-B
08:31AM 60.0763 12.1543 286° West 467 537 34,000  Level FlightAware ADS-B
08:32AM 60.0947 12.0263 286° West 468 539 34,000  Level FlightAware ADS-B
08:32AM 60.1124 11.9009 286° West 469 540 34,000  Level FlightAware ADS-B
08:33AM 60.1302 11.7755 286° West 470 541 34,000  Level FlightAware ADS-B
08:33AM 60.1497 11.6361 286° West 471 542 34,000  Level FlightAware ADS-B
08:34AM 60.1717 11.4776 285° West 469 540 34,000  Level FlightAware ADS-B
08:37AM 60.2508 10.8785 285° West  Level Estimated
08:38AM 60.2825 10.6315 285° West  Level Estimated
08:39AM 60.3137 10.3840 284° West  Level Estimated
08:40AM 60.3445 10.1361 284° West  Level Estimated
08:41AM 60.3748 9.8876 284° West  Level Estimated
08:42AM 60.4047 9.6387 284° West  Level Estimated
08:43AM 60.4341 9.3894 284° West  Level Estimated
08:44AM 60.4630 9.1396 283° West  Level Estimated
08:45AM 60.4914 8.8894 283° West  Level Estimated
08:46AM 60.5194 8.6387 283° West  Level Estimated
08:47AM 60.5469 8.3876 283° West  Level Estimated
08:48AM 60.5740 8.1361 282° West  Level Estimated
08:49AM 60.6005 7.8842 282° West  Level Estimated
08:50AM 60.6266 7.6318 282° West  Level Estimated
08:51AM 60.6522 7.3791 282° West  Level Estimated
08:52AM 60.6774 7.1259 282° West  Level Estimated
08:53AM 60.7020 6.8724 281° West  Level Estimated
08:54AM 60.7262 6.6184 281° West  Level Estimated
08:55AM 60.7499 6.3641 281° West  Level Estimated
08:56AM 60.7732 6.1095 281° West  Level Estimated
08:57AM 60.7959 5.8544 280° West  Level Estimated
08:58AM 60.8181 5.5990 280° West  Level Estimated
08:59AM 60.8399 5.3433 280° West  Level Estimated
09:00AM 60.8612 5.0872 280° West  Level Estimated
09:01AM 60.8820 4.8307 280° West  Level Estimated
09:02AM 60.9023 4.5739 279° West  Level Estimated
09:03AM 60.9221 4.3169 279° West  Level Estimated
09:04AM 60.9414 4.0595 279° West  Level Estimated
09:05AM 60.9603 3.8017 279° West  Level Estimated
09:06AM 60.9786 3.5437 278° West  Level Estimated
09:07AM 60.9964 3.2854 278° West  Level Estimated
09:08AM 61.0138 3.0268 278° West  Level Estimated
09:09AM 61.0307 2.7679 278° West  Level Estimated
09:10AM 61.0470 2.5088 278° West  Level Estimated
09:11AM 61.0629 2.2494 277° West  Level Estimated
09:12AM 61.0782 1.9897 277° West  Level Estimated
09:13AM 61.0931 1.7298 277° West  Level Estimated
09:14AM 61.1075 1.4697 277° West  Level Estimated
09:15AM 61.1213 1.2093 276° West  Level Estimated
09:16AM 61.1347 0.9487 276° West  Level Estimated
09:17AM 61.1476 0.6878 276° West  Level Estimated
09:18AM 61.1599 0.4268 276° West  Level Estimated
09:19AM 61.1718 0.1655 275° West  Level Estimated
09:20AM 61.1832 -0.0959 275° West  Level Estimated
09:21AM 61.1940 -0.3575 275° West  Level Estimated
09:22AM 61.2043 -0.6193 275° West  Level Estimated
09:23AM 61.2142 -0.8813 275° West  Level Estimated
09:24AM 61.2235 -1.1434 274° West  Level Estimated
09:25AM 61.2324 -1.4056 274° West  Level Estimated
09:26AM 61.2407 -1.6680 274° West  Level Estimated
09:27AM 61.2485 -1.9306 274° West  Level Estimated
09:28AM 61.2558 -2.1933 273° West  Level Estimated
09:29AM 61.2626 -2.4561 273° West  Level Estimated
09:30AM 61.2689 -2.7190 273° West  Level Estimated
09:31AM 61.2747 -2.9820 273° West  Level Estimated
09:32AM 61.2800 -3.2450 273° West  Level Estimated
09:33AM 61.2847 -3.5082 272° West  Level Estimated
09:34AM 61.2890 -3.7715 272° West  Level Estimated
09:35AM 61.2927 -4.0348 272° West  Level Estimated
09:36AM 61.2960 -4.2982 272° West  Level Estimated
09:37AM 61.2987 -4.5616 271° West  Level Estimated
09:38AM 61.3009 -4.8251 271° West  Level Estimated
09:39AM 61.3026 -5.0886 271° West  Level Estimated
09:40AM 61.3038 -5.3521 271° West  Level Estimated
09:41AM 61.3045 -5.6157 270° West  Level Estimated
09:42AM 61.3047 -5.8792 270° West  Level Estimated
09:43AM 61.3043 -6.1428 270° West  Level Estimated
09:44AM 61.3035 -6.4063 270° West  Level Estimated
09:45AM 61.3021 -6.6698 270° West  Level Estimated
09:46AM 61.3003 -6.9333 269° West  Level Estimated
09:47AM 61.2979 -7.1968 269° West  Level Estimated
09:48AM 61.2950 -7.4602 269° West  Level Estimated
09:49AM 61.2916 -7.7236 269° West  Level Estimated
09:50AM 61.2877 -7.9869 268° West  Level Estimated
09:51AM 61.2833 -8.2501 268° West  Level Estimated
09:52AM 61.2783 -8.5133 268° West  Level Estimated
09:53AM 61.2729 -8.7763 268° West  Level Estimated
09:54AM 61.2670 -9.0393 267° West  Level Estimated
09:55AM 61.2605 -9.3021 267° West  Level Estimated
09:56AM 61.2535 -9.5649 267° West  Level Estimated
09:57AM 61.2461 -9.8275 267° West  Level Estimated
09:58AM 61.2381 -10.0900 267° West  Level Estimated
09:59AM 61.2296 -10.3524 266° West  Level Estimated
10:00AM 61.2206 -10.6146 266° West  Level Estimated
10:01AM 61.2111 -10.8767 266° West  Level Estimated
10:02AM 61.2011 -11.1386 266° West  Level Estimated
10:03AM 61.1906 -11.4003 265° West  Level Estimated
10:04AM 61.1796 -11.6619 265° West  Level Estimated
10:05AM 61.1681 -11.9233 265° West  Level Estimated
10:06AM 61.1561 -12.1844 265° West  Level Estimated
10:07AM 61.1435 -12.4454 264° West  Level Estimated
10:08AM 61.1305 -12.7062 264° West  Level Estimated
10:09AM 61.1170 -12.9667 264° West  Level Estimated
10:10AM 61.1030 -13.2270 264° West  Level Estimated
10:11AM 61.0884 -13.4871 264° West  Level Estimated
10:12AM 61.0734 -13.7469 263° West  Level Estimated
10:13AM 61.0579 -14.0065 263° West  Level Estimated
10:14AM 61.0419 -14.2659 263° West  Level Estimated
10:15AM 61.0253 -14.5249 263° West  Level Estimated
10:16AM 61.0083 -14.7837 262° West  Level Estimated
10:17AM 60.9908 -15.0422 262° West  Level Estimated
10:18AM 60.9728 -15.3004 262° West  Level Estimated
10:19AM 60.9543 -15.5583 262° West  Level Estimated
10:20AM 60.9353 -15.8160 261° West  Level Estimated
10:21AM 60.9158 -16.0733 261° West  Level Estimated
10:22AM 60.8959 -16.3303 261° West  Level Estimated
10:23AM 60.8754 -16.5869 261° West  Level Estimated
10:24AM 60.8545 -16.8433 261° West  Level Estimated
10:25AM 60.8330 -17.0992 260° West  Level Estimated
10:26AM 60.8111 -17.3549 260° West  Level Estimated
10:27AM 60.7887 -17.6102 260° West  Level Estimated
10:28AM 60.7658 -17.8651 260° West  Level Estimated
10:29AM 60.7424 -18.1197 259° West  Level Estimated
10:30AM 60.7186 -18.3738 259° West  Level Estimated
10:31AM 60.6942 -18.6277 259° West  Level Estimated
10:32AM 60.6694 -18.8811 259° West  Level Estimated
10:33AM 60.6441 -19.1341 259° West  Level Estimated
10:34AM 60.6184 -19.3867 258° West  Level Estimated
10:35AM 60.5921 -19.6389 258° West  Level Estimated
10:36AM 60.5654 -19.8908 258° West  Level Estimated
10:37AM 60.5382 -20.1421 258° West  Level Estimated
10:38AM 60.5106 -20.3931 257° West  Level Estimated
10:39AM 60.4824 -20.6436 257° West  Level Estimated
10:40AM 60.4538 -20.8937 257° West  Level Estimated
10:41AM 60.4248 -21.1434 257° West  Level Estimated
10:42AM 60.3952 -21.3925 257° West  Level Estimated
10:43AM 60.3652 -21.6413 256° West  Level Estimated
10:44AM 60.3348 -21.8896 256° West  Level Estimated
10:45AM 60.3038 -22.1374 256° West  Level Estimated
10:46AM 60.2724 -22.3847 256° West  Level Estimated
10:47AM 60.2406 -22.6316 256° West  Level Estimated
10:48AM 60.2083 -22.8780 255° West  Level Estimated
10:49AM 60.1755 -23.1239 255° West  Level Estimated
10:50AM 60.1423 -23.3693 255° West  Level Estimated
10:51AM 60.1087 -23.6142 255° West  Level Estimated
10:52AM 60.0746 -23.8585 254° West  Level Estimated
10:53AM 60.0400 -24.1024 254° West  Level Estimated
10:54AM 60.0050 -24.3458 254° West  Level Estimated
10:55AM 59.9695 -24.5887 254° West  Level Estimated
10:56AM 59.9336 -24.8310 254° West  Level Estimated
10:57AM 59.8973 -25.0728 253° West  Level Estimated
10:58AM 59.8605 -25.3141 253° West  Level Estimated
10:59AM 59.8232 -25.5548 253° West  Level Estimated
11:00AM 59.7856 -25.7950 253° West  Level Estimated
11:01AM 59.7475 -26.0347 253° West  Level Estimated
11:02AM 59.7089 -26.2738 252° West  Level Estimated
11:03AM 59.6699 -26.5123 252° West  Level Estimated
11:04AM 59.6305 -26.7503 252° West  Level Estimated
11:05AM 59.5907 -26.9878 252° West  Level Estimated
11:06AM 59.5504 -27.2246 252° West  Level Estimated
11:07AM 59.5097 -27.4609 251° West  Level Estimated
11:08AM 59.4686 -27.6967 251° West  Level Estimated
11:09AM 59.4271 -27.9318 251° West  Level Estimated
11:10AM 59.3851 -28.1664 251° West  Level Estimated
11:11AM 59.3427 -28.4004 251° West  Level Estimated
11:12AM 59.2999 -28.6338 250° West  Level Estimated
11:13AM 59.2567 -28.8666 250° West  Level Estimated
11:14AM 59.2131 -29.0988 250° West  Level Estimated
11:15AM 59.1690 -29.3304 250° West  Level Estimated
11:16AM 59.1246 -29.5615 250° West  Level Estimated
11:17AM 59.0797 -29.7919 249° West  Level Estimated
11:18AM 59.0344 -30.0217 249° West  Level Estimated
11:19AM 58.9888 -30.2509 249° West  Level Estimated
11:20AM 58.9427 -30.4795 249° West  Level Estimated
11:21AM 58.8962 -30.7075 249° West  Level Estimated
11:22AM 58.8493 -30.9349 248° West  Level Estimated
11:23AM 58.8020 -31.1616 248° West  Level Estimated
11:24AM 58.7543 -31.3878 248° West  Level Estimated
11:25AM 58.7063 -31.6133 248° West  Level Estimated
11:26AM 58.6578 -31.8382 248° West  Level Estimated
11:27AM 58.6090 -32.0625 247° West  Level Estimated
11:28AM 58.5597 -32.2861 247° West  Level Estimated
11:29AM 58.5101 -32.5091 247° West  Level Estimated
11:30AM 58.4600 -32.7315 247° West  Level Estimated
11:31AM 58.4096 -32.9532 247° West  Level Estimated
11:32AM 58.3589 -33.1743 246° West  Level Estimated
11:33AM 58.3077 -33.3948 246° West  Level Estimated
11:34AM 58.2561 -33.6146 246° West  Level Estimated
11:35AM 58.2042 -33.8338 246° West  Level Estimated
11:36AM 58.1519 -34.0523 246° West  Level Estimated
11:37AM 58.0993 -34.2702 245° Southwest  Level Estimated
11:38AM 58.0462 -34.4875 245° Southwest  Level Estimated
11:39AM 57.9928 -34.7041 245° Southwest  Level Estimated
11:40AM 57.9390 -34.9201 245° Southwest  Level Estimated
11:41AM 57.8849 -35.1354 245° Southwest  Level Estimated
11:42AM 57.8304 -35.3501 245° Southwest  Level Estimated
11:43AM 57.7756 -35.5641 244° Southwest  Level Estimated
11:44AM 57.7203 -35.7774 244° Southwest  Level Estimated
11:45AM 57.6647 -35.9902 244° Southwest  Level Estimated
11:46AM 57.6088 -36.2022 244° Southwest  Level Estimated
11:47AM 57.5525 -36.4136 244° Southwest  Level Estimated
11:48AM 57.4959 -36.6244 243° Southwest  Level Estimated
11:49AM 57.4389 -36.8345 243° Southwest  Level Estimated
11:50AM 57.3815 -37.0439 243° Southwest  Level Estimated
11:51AM 57.3239 -37.2527 243° Southwest  Level Estimated
11:52AM 57.2658 -37.4608 243° Southwest  Level Estimated
11:53AM 57.2075 -37.6683 243° Southwest  Level Estimated
11:54AM 57.1487 -37.8751 242° Southwest  Level Estimated
11:55AM 57.0897 -38.0813 242° Southwest  Level Estimated
11:56AM 57.0303 -38.2868 242° Southwest  Level Estimated
11:57AM 56.9706 -38.4916 242° Southwest  Level Estimated
11:58AM 56.9105 -38.6958 242° Southwest  Level Estimated
11:59AM 56.8501 -38.8993 242° Southwest  Level Estimated
12:00PM 56.7894 -39.1022 241° Southwest  Level Estimated
12:01PM 56.7283 -39.3044 241° Southwest  Level Estimated
12:02PM 56.6670 -39.5059 241° Southwest  Level Estimated
12:03PM 56.6053 -39.7068 241° Southwest  Level Estimated
12:04PM 56.5432 -39.9071 241° Southwest  Level Estimated
12:05PM 56.4809 -40.1067 241° Southwest  Level Estimated
12:06PM 56.4182 -40.3056 240° Southwest  Level Estimated
12:07PM 56.3553 -40.5039 240° Southwest  Level Estimated
12:08PM 56.2920 -40.7015 240° Southwest  Level Estimated
12:09PM 56.2283 -40.8984 240° Southwest  Level Estimated
12:10PM 56.1644 -41.0947 240° Southwest  Level Estimated
12:11PM 56.1002 -41.2904 240° Southwest  Level Estimated
12:12PM 56.0356 -41.4854 239° Southwest  Level Estimated
12:13PM 55.9708 -41.6797 239° Southwest  Level Estimated
12:14PM 55.9057 -41.8734 239° Southwest  Level Estimated
12:15PM 55.8402 -42.0665 239° Southwest  Level Estimated
12:16PM 55.7744 -42.2589 239° Southwest  Level Estimated
12:17PM 55.7084 -42.4506 239° Southwest  Level Estimated
12:18PM 55.6420 -42.6417 238° Southwest  Level Estimated
12:19PM 55.5754 -42.8321 238° Southwest  Level Estimated
12:20PM 55.5084 -43.0219 238° Southwest  Level Estimated
12:21PM 55.4412 -43.2111 238° Southwest  Level Estimated
12:22PM 55.3737 -43.3996 238° Southwest  Level Estimated
12:23PM 55.3059 -43.5875 238° Southwest  Level Estimated
12:24PM 55.2378 -43.7747 238° Southwest  Level Estimated
12:25PM 55.1694 -43.9613 237° Southwest  Level Estimated
12:26PM 55.1007 -44.1472 237° Southwest  Level Estimated
12:27PM 55.0317 -44.3325 237° Southwest  Level Estimated
12:28PM 54.9625 -44.5172 237° Southwest  Level Estimated
12:29PM 54.8930 -44.7012 237° Southwest  Level Estimated
12:30PM 54.8232 -44.8846 237° Southwest  Level Estimated
12:31PM 54.7532 -45.0674 236° Southwest  Level Estimated
12:32PM 54.6828 -45.2495 236° Southwest  Level Estimated
12:33PM 54.6122 -45.4310 236° Southwest  Level Estimated
12:34PM 54.5413 -45.6118 236° Southwest  Level Estimated
12:35PM 54.4702 -45.7921 236° Southwest  Level Estimated
12:36PM 54.3974 -45.9750 236° Southwest  Level Estimated
12:37PM 54.3244 -46.1573 236° Southwest  Level Estimated
12:38PM 54.2511 -46.3390 235° Southwest  Level Estimated
12:39PM 54.1775 -46.5200 235° Southwest  Level Estimated
12:40PM 54.1036 -46.7004 235° Southwest  Level Estimated
12:41PM 54.0295 -46.8801 235° Southwest  Level Estimated
12:42PM 53.9551 -47.0592 235° Southwest  Level Estimated
12:43PM 53.8805 -47.2377 235° Southwest  Level Estimated
12:43PM 62.4333 -58.2000 234° Southwest 480 552 34,000  Level Gander Center
12:44PM 53.8056 -47.4155 235° Southwest  Level Estimated
12:44PM 62.3833 -58.4500 247° West 480 552 34,000  Level Gander Center
12:45PM 53.7304 -47.5927 234° Southwest  Level Estimated
12:45PM 62.3167 -58.7167 242° Southwest 480 552 34,000  Level Gander Center
12:46PM 53.6550 -47.7692 234° Southwest  Level Estimated
12:46PM 62.2500 -58.9167 234° Southwest 480 552 34,000  Level Montreal Center
12:47PM 53.5793 -47.9451 234° Southwest  Level Estimated
12:47PM 62.2000 -59.1833 248° West 480 552 34,000  Level Gander Center
12:48PM 53.5033 -48.1204 234° Southwest  Level Estimated
12:48PM 62.1167 -59.4333 235° Southwest 480 552 34,000  Level Gander Center
12:49PM 53.4271 -48.2951 234° Southwest  Level Estimated
12:49PM 62.0333 -59.6500 231° Southwest 470 541 34,000  Level Gander Center
12:50PM 61.9667 -59.9000 241° Southwest 480 552 34,000  Level Gander Center
12:51PM 61.9000 -60.1167 237° Southwest 470 541 34,000  Level Gander Center
12:52PM 61.8167 -60.3333 231° Southwest 470 541 34,000  Level Gander Center
12:53PM 61.7500 -60.5833 241° Southwest 470 541 34,000  Level Gander Center
12:54PM 61.6833 -60.8000 237° Southwest 470 541 34,000  Level Gander Center
12:55PM 61.6000 -61.0000 229° Southwest 470 541 34,000  Level Gander Center
12:56PM 61.5333 -61.2500 241° Southwest 470 541 34,000  Level Gander Center
12:57PM 61.4500 -61.4500 229° Southwest 470 541 34,000  Level Gander Center
12:58PM 61.3833 -61.7000 241° Southwest 470 541 34,000  Level Gander Center
12:59PM 61.3000 -61.9000 229° Southwest 470 541 34,000  Level Gander Center
01:00PM 61.2333 -62.1500 241° Southwest 470 541 34,000  Level Gander Center
01:01PM 61.1500 -62.3500 229° Southwest 470 541 34,000  Level Gander Center
01:02PM 61.0833 -62.5500 235° Southwest 470 541 34,000  Level Gander Center
01:03PM 60.9833 -62.7500 224° Southwest 470 541 34,000  Level Gander Center
01:04PM 60.9167 -63.0333 244° Southwest 490 564 34,000  Level Gander Center
01:05PM 60.8167 -63.1833 216° Southwest 480 552 34,000  Level Gander Center
01:06PM 60.7167 -63.3833 224° Southwest 470 541 34,000  Level Gander Center
01:07PM 60.6167 -63.5500 219° Southwest 470 541 34,000  Level Gander Center
01:08PM 60.5167 -63.6833 213° Southwest 470 541 34,000  Level Gander Center
01:09PM 60.4167 -63.8333 217° Southwest 470 541 34,000  Level Gander Center
01:10PM 60.3000 -64.0333 220° Southwest 470 541 34,000  Level Gander Center
01:11PM 60.2000 -64.2000 220° Southwest 470 541 34,000  Level Gander Center
01:12PM 60.1000 -64.3500 217° Southwest 470 541 34,000  Level Gander Center
01:13PM 60.0000 -64.5167 220° Southwest 470 541 34,000  Level Gander Center
01:14PM 59.9000 -64.6333 210° Southwest 460 529 34,000  Level Gander Center
01:15PM 59.8000 -64.8167 223° Southwest 460 529 34,000  Level Gander Center
01:16PM 59.6833 -64.9667 213° Southwest 460 529 34,000  Level Gander Center
01:17PM 59.5833 -65.1333 220° Southwest 460 529 34,000  Level Gander Center
01:18PM 59.4833 -65.2833 217° Southwest 460 529 34,000  Level Gander Center
01:19PM 59.3833 -65.4333 217° Southwest 460 529 34,000  Level Gander Center
01:20PM 59.2833 -65.5833 217° Southwest 460 529 34,000  Level Gander Center
01:21PM 59.1833 -65.7000 211° Southwest 460 529 34,000  Level Gander Center
01:22PM 59.0833 -65.8500 218° Southwest 460 529 34,000  Level Gander Center
01:23PM 58.9667 -66.0333 219° Southwest 460 529 34,000  Level Gander Center
01:24PM 58.8667 -66.1833 218° Southwest 470 541 34,000  Level Gander Center
01:25PM 58.7500 -66.3333 214° Southwest 470 541 34,000  Level Gander Center
01:26PM 58.6500 -66.4667 215° Southwest 470 541 34,000  Level Gander Center
01:27PM 58.5500 -66.6167 218° Southwest 470 541 34,000  Level Gander Center
01:28PM 58.4333 -66.7667 214° Southwest 460 529 34,000  Level Gander Center
01:29PM 58.3500 -66.9000 220° Southwest 460 529 34,000  Level Gander Center
01:30PM 58.2500 -67.0167 212° Southwest 460 529 34,000  Level Gander Center
01:31PM 58.1333 -67.1667 214° Southwest 460 529 34,000  Level Gander Center
01:32PM 58.0500 -67.3000 220° Southwest 460 529 34,000  Level Gander Center
01:33PM 57.9500 -67.4500 219° Southwest 460 529 34,000  Level Gander Center
01:34PM 57.8167 -67.5833 208° Southwest 460 529 34,000  Level Gander Center
01:35PM 57.7167 -67.7167 215° Southwest 460 529 34,000  Level Gander Center
01:36PM 57.6167 -67.8667 219° Southwest 460 529 34,000  Level Gander Center
01:37PM 57.5167 -68.0000 216° Southwest 460 529 34,000  Level Gander Center
01:38PM 57.3833 -68.1167 205° Southwest 450 518 34,000  Level Montreal Center
01:39PM 57.2833 -68.2333 212° Southwest 450 518 34,000  Level Montreal Center
01:40PM 57.1833 -68.3833 219° Southwest 450 518 34,000  Level Montreal Center
01:41PM 57.0833 -68.5000 212° Southwest 450 518 34,000  Level Montreal Center
01:42PM 56.9667 -68.6333 212° Southwest 450 518 34,000  Level Montreal Center
01:43PM 56.8667 -68.7500 213° Southwest 450 518 34,000  Level Montreal Center
01:44PM 56.7667 -68.9000 219° Southwest 450 518 34,000  Level Montreal Center
01:45PM 56.6667 -69.0000 209° Southwest 450 518 34,000  Level Montreal Center
01:46PM 56.5500 -69.1500 215° Southwest 450 518 34,000  Level Montreal Center
01:47PM 56.4500 -69.2500 209° Southwest 450 518 34,000  Level Montreal Center
01:48PM 56.3333 -69.4000 216° Southwest 450 518 34,000  Level Montreal Center
01:49PM 56.2333 -69.5333 217° Southwest 450 518 34,000  Level Montreal Center
01:50PM 56.1333 -69.6500 213° Southwest 450 518 34,000  Level Montreal Center
01:51PM 56.0333 -69.7833 217° Southwest 450 518 34,000  Level Montreal Center
01:52PM 55.9167 -69.8833 206° Southwest 450 518 34,000  Level Montreal Center
01:53PM 55.8000 -70.0333 216° Southwest 450 518 34,000  Level Montreal Center
01:55PM 55.6167 -70.2833 218° Southwest 460 529 34,000  Level Gander Center
01:56PM 55.5000 -70.4167 213° Southwest 460 529 34,000  Level Gander Center
01:57PM 55.4167 -70.5333 218° Southwest 450 518 34,000  Level Gander Center
01:58PM 55.3000 -70.6667 213° Southwest 460 529 34,000  Level Gander Center
01:59PM 55.2000 -70.7500 205° Southwest 450 518 34,000  Level Gander Center
02:00PM 55.0833 -70.8833 213° Southwest 460 529 34,000  Level Gander Center
02:01PM 54.9833 -71.0000 214° Southwest 460 529 34,000  Level Gander Center
02:02PM 54.8833 -71.1167 214° Southwest 460 529 34,000  Level Gander Center
02:03PM 54.7667 -71.2333 210° Southwest 460 529 34,000  Level Gander Center
02:04PM 54.6500 -71.3500 210° Southwest 460 529 34,000  Level Gander Center
02:05PM 54.5500 -71.4833 218° Southwest 460 529 34,000  Level Gander Center
02:06PM 54.4333 -71.6000 210° Southwest 460 529 34,000  Level Gander Center
02:07PM 54.3167 -71.7167 210° Southwest 460 529 34,000  Level Gander Center
02:08PM 54.2333 -71.8000 210° Southwest 450 518 34,000  Level Gander Center
02:09PM 54.1167 -71.9167 210° Southwest 450 518 34,000  Level Gander Center
02:10PM 54.0167 -72.0333 214° Southwest 450 518 34,000  Level Gander Center
02:11PM 53.9000 -72.1500 211° Southwest 450 518 34,000  Level Gander Center
02:12PM 53.8000 -72.2667 215° Southwest 450 518 34,000  Level Gander Center
02:13PM 53.7000 -72.3833 215° Southwest 450 518 34,000  Level Gander Center
02:14PM 53.5833 -72.5000 211° Southwest 460 529 34,000  Level Gander Center
02:15PM 53.4667 -72.5833 203° Southwest 460 529 34,000  Level Gander Center
02:16PM 53.3667 -72.6833 211° Southwest 460 529 34,000  Level Gander Center
02:17PM 53.2500 -72.8000 211° Southwest 460 529 34,000  Level Gander Center
02:18PM 53.1333 -72.9167 211° Southwest 460 529 34,000  Level Gander Center
02:19PM 53.0167 -73.0167 207° Southwest 460 529 34,000  Level Gander Center
02:20PM 52.9333 -73.1333 220° Southwest 460 529 34,000  Level Gander Center
02:21PM 52.8167 -73.2500 211° Southwest 470 541 34,000  Level Gander Center
02:22PM 52.7000 -73.3500 207° Southwest 470 541 34,000  Level Gander Center
02:23PM 52.6000 -73.4667 215° Southwest 470 541 34,000  Level Gander Center
02:24PM 52.4833 -73.5667 208° Southwest 470 541 34,000  Level Gander Center
02:25PM 52.3667 -73.6667 208° Southwest 470 541 34,000  Level Gander Center
02:26PM 52.2333 -73.7833 208° Southwest 470 541 34,000  Level Gander Center
02:27PM 52.1333 -73.8833 212° Southwest 470 541 34,000  Level Gander Center
02:28PM 52.0167 -73.9833 208° Southwest 460 529 34,000  Level Gander Center
02:29PM 51.9167 -74.1000 216° Southwest 460 529 34,000  Level Gander Center
02:30PM 51.8000 -74.2000 208° Southwest 460 529 34,000  Level Gander Center
02:31PM 51.6833 -74.3000 208° Southwest 460 529 34,000  Level Gander Center
02:32PM 51.5833 -74.4000 212° Southwest 460 529 34,000  Level Gander Center
02:33PM 51.4667 -74.4833 204° Southwest 460 529 34,000  Level Gander Center
02:34PM 51.3500 -74.6167 216° Southwest 460 529 34,000  Level Gander Center
02:35PM 51.2333 -74.6667 195° South 450 518 34,000  Level Montreal Center
02:36PM 51.1167 -74.7833 212° Southwest 450 518 34,000  Level Montreal Center
02:37PM 51.0167 -74.8667 208° Southwest 450 518 34,000  Level Montreal Center
02:38PM 50.9000 -74.9833 212° Southwest 450 518 34,000  Level Montreal Center
02:39PM 50.7833 -75.0667 204° Southwest 450 518 34,000  Level Montreal Center
02:40PM 50.6833 -75.1667 212° Southwest 450 518 34,000  Level Montreal Center
02:41PM 50.5667 -75.2500 204° Southwest 450 518 34,000  Level Montreal Center
02:42PM 50.4667 -75.3500 212° Southwest 450 518 34,000  Level Montreal Center
02:43PM 50.3500 -75.4333 205° Southwest 450 518 34,000  Level Montreal Center
02:44PM 50.2500 -75.5500 217° Southwest 450 518 34,000  Level Montreal Center
02:45PM 50.1333 -75.6167 200° South 450 518 34,000  Level Montreal Center
02:46PM 50.0333 -75.7333 217° Southwest 450 518 34,000  Level Montreal Center
02:47PM 49.9000 -75.8167 202° Southwest 440 506 34,000  Level Montreal Center
02:48PM 49.8000 -75.9167 213° Southwest 440 506 34,000  Level Montreal Center
02:49PM 49.7000 -76.0000 208° Southwest 430 495 34,000  Level Montreal Center
02:50PM 49.5833 -76.0667 200° South 430 495 34,000  Level Montreal Center
02:51PM 49.4833 -76.1667 213° Southwest 420 483 34,000  Level Montreal Center
02:52PM 49.3833 -76.2500 208° Southwest 430 495 34,000  Level Montreal Center
02:53PM 49.2833 -76.3333 209° Southwest 430 495 34,000  Level Montreal Center
02:54PM 49.1667 -76.4333 209° Southwest 430 495 34,000  Level Montreal Center
02:55PM 49.0667 -76.5000 204° Southwest 430 495 34,000  Level Montreal Center
02:56PM 48.9500 -76.6000 209° Southwest 430 495 34,000  Level Montreal Center
02:57PM 48.8500 -76.6833 209° Southwest 430 495 34,000  Level Montreal Center
02:58PM 48.7500 -76.7833 213° Southwest 430 495 34,000  Level Montreal Center
02:59PM 48.6333 -76.8500 201° Southwest 430 495 34,000  Level Montreal Center
03:00PM 48.5333 -76.9333 209° Southwest 430 495 34,000  Level Montreal Center
03:01PM 48.4167 -77.0333 210° Southwest 440 506 34,000  Level Montreal Center
03:02PM 48.3167 -77.1000 204° Southwest 430 495 34,000  Level Montreal Center
03:03PM 48.2000 -77.2000 210° Southwest 430 495 34,000  Level Montreal Center
03:04PM 48.1000 -77.2667 204° Southwest 430 495 34,000  Level Montreal Center
03:05PM 47.9833 -77.3667 210° Southwest 430 495 34,000  Level Montreal Center
03:06PM 47.8833 -77.4500 209° Southwest 430 495 34,000  Level Montreal Center
03:07PM 47.7667 -77.5167 201° Southwest 430 495 34,000  Level Montreal Center
03:08PM 47.6667 -77.6167 214° Southwest 430 495 34,000  Level Montreal Center
03:09PM 47.5667 -77.6833 204° Southwest 430 495 34,000  Level Montreal Center
03:10PM 47.4500 -77.7500 201° Southwest 430 495 34,000  Level Montreal Center
03:18PM 46.6175 -78.3818 207° Southwest 437 503 34,000  Level FlightAware ADS-B (CYYZ)
03:19PM 46.5704 -78.4158 207° Southwest 437 503 34,000  Level FlightAware ADS-B (CYYZ)
03:19PM 46.5125 -78.4575 207° Southwest 437 503 34,000  Level FlightAware ADS-B (CYYZ)
03:20PM 46.4564 -78.4978 207° Southwest 437 503 34,000  Level FlightAware ADS-B (CYYZ)
03:20PM 46.3989 -78.5390 207° Southwest 436 502 34,000  Level FlightAware ADS-B (CYYZ)
03:21PM 46.3569 -78.5690 207° Southwest 435 501 34,000  Level FlightAware ADS-B (CYYZ)
03:21PM 46.2931 -78.6145 207° Southwest 435 501 34,000  Level FlightAware ADS-B (CYYZ)
03:22PM 46.2385 -78.6535 207° Southwest 434 499 34,000  Level FlightAware ADS-B (CYYZ)
03:22PM 46.1833 -78.6927 207° Southwest 432 497 34,000  Level FlightAware ADS-B (CYYZ)
03:23PM 46.1281 -78.7318 207° Southwest 431 496 34,000  Level FlightAware ADS-B (CYYZ)
03:23PM 46.0751 -78.7693 207° Southwest 431 496 34,000  Level FlightAware ADS-B (CYYZ)
03:24PM 46.0211 -78.8073 207° Southwest 428 493 34,000  Level FlightAware ADS-B (CYYZ)
03:24PM 45.9672 -78.8453 207° Southwest 429 494 34,000  Level FlightAware ADS-B (CYYZ)
03:25PM 45.9143 -78.8824 207° Southwest 429 494 34,000  Level FlightAware ADS-B (CYYZ)
03:25PM 45.8625 -78.9188 207° Southwest 430 495 34,000  Level FlightAware ADS-B (CYYZ)
03:26PM 45.8077 -78.9571 207° Southwest 429 494 34,000  Level FlightAware ADS-B (CYYZ)
03:26PM 45.7559 -78.9933 207° Southwest 430 495 34,000  Level FlightAware ADS-B (CYYZ)
03:27PM 45.7001 -79.0321 207° Southwest 430 495 34,000  Level FlightAware ADS-B (CYYZ)
03:27PM 45.6456 -79.0700 206° Southwest 430 495 34,000  Level FlightAware ADS-B (CYYZ)
03:28PM 45.5925 -79.1068 206° Southwest 430 495 34,000  Level FlightAware ADS-B (CYYZ)
03:28PM 45.5400 -79.1432 206° Southwest 429 494 34,000  Level FlightAware ADS-B (CYYZ)
03:29PM 45.4890 -79.1783 206° Southwest 429 494 34,000  Level FlightAware ADS-B (CYYZ)
03:29PM 45.4348 -79.2157 206° Southwest 430 495 34,000  Level FlightAware ADS-B (CYGK)
03:30PM 45.3781 -79.2547 206° Southwest 428 493 34,000  Level FlightAware ADS-B (CYYZ)
03:30PM 45.3253 -79.2909 206° Southwest 426 490 34,000  Level FlightAware ADS-B (CYYZ)
03:31PM 45.2716 -79.3278 206° Southwest 425 489 34,000  Level FlightAware ADS-B (CYYZ)
03:31PM 45.2192 -79.3636 206° Southwest 425 489 34,000  Level FlightAware ADS-B (CYYZ)
03:32PM 45.1691 -79.3977 206° Southwest 426 490 34,000  Level FlightAware ADS-B (CYYZ)
03:32PM 45.1132 -79.4358 206° Southwest 426 490 34,000  Level FlightAware ADS-B (CYYZ)
03:32PM 45.0845 -79.4554 206° Southwest 426 490 34,000  Level FlightAware ADS-B (CYGK)
03:33PM 45.0602 -79.4718 206° Southwest 426 490 34,000  Level FlightAware ADS-B (CYYZ)
03:33PM 45.0163 -79.5016 206° Southwest 426 490 34,000  Level FlightAware ADS-B (CYGK)
03:33PM 45.0068 -79.5079 206° Southwest 426 490 34,000  Level FlightAware ADS-B (CYYZ)
03:34PM 44.9535 -79.5440 206° Southwest 424 488 34,000  Level FlightAware ADS-B (CYYZ)
03:34PM 44.9445 -79.5501 206° Southwest 426 490 34,000  Level FlightAware ADS-B (CYGK)
03:34PM 44.9021 -79.5787 206° Southwest 424 488 34,000  Level FlightAware ADS-B (CYYZ)
03:35PM 44.8466 -79.6161 206° Southwest 424 488 34,000  Level FlightAware ADS-B (CYYZ)
03:35PM 44.7933 -79.6520 206° Southwest 425 489 34,000  Level FlightAware ADS-B (CYYZ)
03:35PM 44.7800 -79.6609 206° Southwest 426 490 34,000  Level FlightAware ADS-B (CYKZ)
03:36PM 44.7406 -79.6874 206° Southwest 426 490 34,000  Level FlightAware ADS-B (CYYZ)
03:36PM 44.7170 -79.7031 206° Southwest 428 493 34,000  Level FlightAware ADS-B (CYKZ)
03:36PM 44.6866 -79.7235 206° Southwest 427 491 34,000  Level FlightAware ADS-B (CYYZ)
03:36PM 44.6637 -79.7388 206° Southwest 428 493 34,000  Level FlightAware ADS-B (CYGK)
03:37PM 44.6337 -79.7588 206° Southwest 427 491 34,000  Level FlightAware ADS-B (CYYZ)
03:37PM 44.5903 -79.7883 207° Southwest 424 488 34,000  Level FlightAware ADS-B (CYKZ)
03:37PM 44.5727 -79.8016 210° Southwest 421 484 34,000  Level FlightAware ADS-B (CYYZ)
03:38PM 44.5206 -79.8473 213° Southwest 417 480 34,000  Level FlightAware ADS-B (CYKZ)
03:38PM 44.4818 -79.8831 214° Southwest 417 480 34,000  Level FlightAware ADS-B (CYYZ)
03:38PM 44.4687 -79.8951 213° Southwest 418 481 34,000  Level FlightAware ADS-B (CYKZ)
03:39PM 44.4331 -79.9276 213° Southwest 419 482 34,000  Level FlightAware ADS-B (CYYZ)
03:39PM 44.4066 -79.9515 213° Southwest 420 483 34,000  Level FlightAware ADS-B (CYKZ)
03:39PM 44.3841 -79.9718 213° Southwest 420 483 34,000  Level FlightAware ADS-B (CYYZ)
03:40PM 44.3537 -79.9990 213° Southwest 421 484 34,000  Level FlightAware ADS-B (CYKZ)
03:40PM 44.3352 -80.0157 213° Southwest 421 484 34,000  Level FlightAware ADS-B (CYYZ)
03:40PM 44.2869 -80.0589 213° Southwest 421 484 34,000  Level FlightAware ADS-B (CYYZ)
03:41PM 44.2379 -80.1027 213° Southwest 422 486 34,000  Level FlightAware ADS-B (CYYZ)
03:41PM 44.1876 -80.1476 213° Southwest 424 488 34,000  Level FlightAware ADS-B (CYYZ)
03:42PM 44.1373 -80.1924 213° Southwest 427 491 34,000  Level FlightAware ADS-B (CYYZ)
03:42PM 44.1245 -80.2038 213° Southwest 429 494 34,000  Level FlightAware ADS-B (CYKZ)
03:42PM 44.0881 -80.2362 213° Southwest 429 494 34,000  Level FlightAware ADS-B (CYYZ)
03:43PM 44.0481 -80.2716 213° Southwest 431 496 34,000  Level FlightAware ADS-B (CYKZ)
03:43PM 44.0373 -80.2811 213° Southwest 431 496 34,000  Level FlightAware ADS-B (CYYZ)
03:43PM 43.9870 -80.3257 213° Southwest 433 498 34,000  Level FlightAware ADS-B (CYYZ)
03:43PM 43.9636 -80.3463 213° Southwest 433 498 34,000  Level FlightAware ADS-B (CYHM)
03:44PM 43.9362 -80.3706 213° Southwest 433 498 34,000  Level FlightAware ADS-B (CYYZ)
03:44PM 43.8863 -80.4146 213° Southwest 432 497 34,000  Level FlightAware ADS-B (CYYZ)
03:44PM 43.8856 -80.4153 212° Southwest 433 498 34,000  Level FlightAware ADS-B (CYHM)
03:45PM 43.8351 -80.4597 213° Southwest 435 501 34,000  Level FlightAware ADS-B (CYYZ)
03:45PM 43.8293 -80.4648 213° Southwest 435 501 34,000  Level FlightAware ADS-B (CYKF)
03:45PM 43.7847 -80.5040 213° Southwest 436 502 34,000  Level FlightAware ADS-B (CYYZ)
03:45PM 43.7557 -80.5295 212° Southwest 438 504 34,000  Level FlightAware ADS-B (CYHM)
03:46PM 43.7344 -80.5480 213° Southwest 437 503 34,000  Level FlightAware ADS-B (CYYZ)
03:46PM 43.7312 -80.5508 212° Southwest 439 505 34,000  Level FlightAware ADS-B (CYKZ)
03:46PM 43.6814 -80.5942 213° Southwest 440 506 34,000  Level FlightAware ADS-B (CYYZ)
03:47PM 43.6366 -80.6333 212° Southwest 441 507 34,000  Level FlightAware ADS-B (CYHM)
03:47PM 43.6296 -80.6394 213° Southwest 441 507 34,000  Level FlightAware ADS-B (CYYZ)
03:47PM 43.5777 -80.6846 213° Southwest 443 510 34,000  Level FlightAware ADS-B (CYYZ)
03:47PM 43.5714 -80.6901 212° Southwest 444 511 34,000  Level FlightAware ADS-B (CYKZ)
03:48PM 43.5259 -80.7296 213° Southwest 443 510 34,000  Level FlightAware ADS-B (CYYZ)
03:48PM 43.4745 -80.7742 213° Southwest 443 510 34,000  Level FlightAware ADS-B (CYYZ)
03:49PM 43.4216 -80.8199 213° Southwest 443 510 34,000  Level FlightAware ADS-B (CYYZ)
03:49PM 43.4183 -80.8228 212° Southwest 443 510 34,000  Level FlightAware ADS-B (CYKF)
03:49PM 43.3714 -80.8632 213° Southwest 442 509 34,000  Level FlightAware ADS-B (CYYZ)
03:49PM 43.3584 -80.8744 212° Southwest 442 509 34,000  Level FlightAware ADS-B (CYKZ)
03:50PM 43.3200 -80.9075 213° Southwest 441 507 34,000  Level FlightAware ADS-B (CYYZ)
03:50PM 43.2865 -80.9363 212° Southwest 443 510 34,000  Level FlightAware ADS-B (CYKZ)
03:50PM 43.2665 -80.9535 213° Southwest 443 510 34,000  Level FlightAware ADS-B (CYYZ)
03:51PM 43.2365 -80.9793 212° Southwest 443 510 34,000  Level FlightAware ADS-B (CYKZ)
03:51PM 43.2136 -80.9989 213° Southwest 443 510 34,000  Level FlightAware ADS-B (CYYZ)
03:51PM 43.1613 -81.0437 213° Southwest 444 511 34,000  Level FlightAware ADS-B (CYYZ)
03:52PM 43.1096 -81.0879 213° Southwest 444 511 34,000  Level FlightAware ADS-B (CYYZ)
03:52PM 43.1048 -81.0920 212° Southwest 445 512 34,000  Level FlightAware ADS-B (CYKF)
03:52PM 43.0573 -81.1324 212° Southwest 442 509 34,000  Level FlightAware ADS-B (CYYZ)
03:52PM 43.0330 -81.1504 206° Southwest 445 512 34,000  Level FlightAware ADS-B (CYKZ)
03:53PM 43.0019 -81.1700 204° Southwest 446 513 34,000  Level FlightAware ADS-B (CYYZ)
03:53PM 42.9729 -81.1873 204° Southwest 444 511 34,000  Level FlightAware ADS-B (CYKZ)
03:53PM 42.9464 -81.2041 206° Southwest 443 510 34,000  Level FlightAware ADS-B (CYYZ)
03:54PM 42.8974 -81.2355 205° Southwest 443 510 34,000  Level FlightAware ADS-B (CYKZ)
03:54PM 42.8894 -81.2404 205° Southwest 443 510 34,000  Level FlightAware ADS-B (CYYZ)
03:54PM 42.8358 -81.2740 205° Southwest 443 510 34,000  Level FlightAware ADS-B (CYYZ)
03:55PM 42.8162 -81.2861 204° Southwest 442 509 34,000  Level FlightAware ADS-B (CYKZ)
03:55PM 42.7797 -81.3085 205° Southwest 443 510 34,000  Level FlightAware ADS-B (CYYZ)
03:55PM 42.7224 -81.3437 205° Southwest 444 511 34,000  Level FlightAware ADS-B (CYYZ)
03:55PM 42.7071 -81.3531 204° Southwest 444 511 34,000  Level FlightAware ADS-B (CYKZ)
03:56PM 42.6675 -81.3773 205° Southwest 444 511 34,000  Level FlightAware ADS-B (CYYZ)
03:56PM 42.6396 -81.3944 204° Southwest 444 511 34,000  Level FlightAware ADS-B (CYKZ)
03:56PM 42.6104 -81.4123 205° Southwest 445 512 34,000  Level FlightAware ADS-B (CYYZ)
03:57PM 42.5535 -81.4470 205° Southwest 444 511 34,000  Level FlightAware ADS-B (CYYZ)
03:57PM 42.4996 -81.4799 205° Southwest 445 512 34,000  Level FlightAware ADS-B (CYYZ)
03:57PM 42.5171 -81.4692 204° Southwest 444 511 34,000  Level FlightAware ADS-B (CYKZ)
03:58PM 42.4418 -81.5150 205° Southwest 446 513 34,000  Level FlightAware ADS-B (CYYZ)
03:58PM 42.3844 -81.5499 205° Southwest 447 514 34,000  Level FlightAware ADS-B (CYYZ)
03:59PM 42.3288 -81.5837 205° Southwest 448 516 34,000  Level FlightAware ADS-B (CYYZ)
03:59PM 42.2818 -81.6121 205° Southwest 450 518 34,000  Level FlightAware ADS-B (CYYZ)
04:00PM 42.2150 -81.6525 205° Southwest 450 518 34,000  Level FlightAware ADS-B (CYYZ)
04:00PM 42.1882 -81.6686 205° Southwest 449 517 34,000  Level FlightAware ADS-B (CYYZ)
04:01PM 42.1167 -81.7116 205° Southwest 448 516 34,000  Level FlightAware ADS-B (CYYZ)
04:01PM 42.0553 -81.7485 205° Southwest 448 516 34,000  Level FlightAware ADS-B (CYYZ)
04:03PM 41.7874 -81.9085 205° Southwest 440 506 34,000  Level FlightAware ADS-B (CYYZ)
04:04PM 41.7343 -81.9401 205° Southwest 436 502 34,000  Level FlightAware ADS-B (CYYZ)
04:05PM 41.6523 -81.9887 204° Southwest 435 501 34,000  Level FlightAware ADS-B (CYYZ)
04:05PM 41.6322 -82.0005 204° Southwest 436 502 34,000  Level FlightAware ADS-B (CYYZ)
04:06PM 41.5496 -82.0493 204° Southwest 436 502 34,000  Level FlightAware ADS-B (CYYZ)
04:06PM 41.4628 -82.1025 204° Southwest 436 502 34,000  Level Indianapolis Center
04:08PM 41.3511 -82.1644 203° Southwest 436 502 34,000  Level Indianapolis Center
04:09PM 41.2322 -82.2067 195° South 437 503 34,000  Level Indianapolis Center
04:10PM 41.1125 -82.2508 196° South 442 509 34,000  Level Indianapolis Center
04:11PM 40.9931 -82.2931 195° South 442 509 34,000  Level Indianapolis Center
04:12PM 40.8539 -82.3422 195° South 442 509 34,000  Level Indianapolis Center
04:13PM 40.7333 -82.3844 195° South 443 510 34,000  Level Indianapolis Center
04:14PM 40.6117 -82.4269 195° South 444 511 34,000  Level Indianapolis Center
04:19PM 39.9248 -82.6036 183° South 447 514 34,000  Level FlightAware ADS-B (KPMH)
04:20PM 39.8508 -82.6088 183° South 443 510 34,000  Level FlightAware ADS-B (KPMH)
04:20PM 39.7925 -82.6127 183° South 443 510 34,000  Level FlightAware ADS-B (KPMH)
04:21PM 39.7144 -82.6180 183° South 445 512 34,000  Level FlightAware ADS-B (KPMH)
04:22PM 39.6529 -82.6222 183° South 447 514 34,000  Level FlightAware ADS-B (KPMH)
04:22PM 39.5925 -82.6263 183° South 447 514 34,000  Level FlightAware ADS-B (KPMH)
04:23PM 39.5125 -82.6316 183° South 446 513 34,000  Level FlightAware ADS-B (KPMH)
04:23PM 39.4334 -82.6369 183° South 446 513 34,000  Level FlightAware ADS-B (KPMH)
04:24PM 39.3498 -82.6425 183° South 447 514 34,000  Level FlightAware ADS-B (KPMH)
04:25PM 39.2744 -82.6475 183° South 448 516 34,000  Level FlightAware ADS-B (KPMH)
04:25PM 39.2110 -82.6517 183° South 447 514 34,000  Level FlightAware ADS-B (KPMH)
04:26PM 39.1235 -82.6575 183° South 447 514 34,000  Level FlightAware ADS-B (KPMH)
04:26PM 39.0459 -82.6626 183° South 447 514 34,000  Level FlightAware ADS-B (KPMH)
04:27PM 38.9741 -82.6673 183° South 447 514 34,000  Level FlightAware ADS-B (KPMH)
04:28PM 38.9099 -82.6716 183° South 448 516 34,000  Level FlightAware ADS-B (KPMH)
04:28PM 38.8214 -82.6775 183° South 451 519 34,000  Level FlightAware ADS-B (KPMH)
04:29PM 38.7441 -82.6826 183° South 451 519 34,000  Level FlightAware ADS-B (KPMH)
04:29PM 38.6706 -82.6873 183° South 449 517 34,000  Level FlightAware ADS-B (KPMH)
04:30PM 38.5747 -82.6942 183° South 446 513 34,000  Level Indianapolis Center
04:31PM 38.4503 -82.7019 183° South 446 513 34,000  Level Indianapolis Center
04:32PM 38.3247 -82.7108 183° South 446 513 34,000  Level Indianapolis Center
04:33PM 38.1994 -82.7169 182° South 446 513 34,000  Level Indianapolis Center
04:34PM 38.0761 -82.7256 183° South 446 513 34,000  Level Indianapolis Center
04:35PM 37.9322 -82.7403 185° South 446 513 34,000  Level Indianapolis Center
04:36PM 37.8242 -82.8083 206° Southwest 434 499 34,000  Level Indianapolis Center
04:38PM 37.7136 -82.8689 203° Southwest 433 498 34,000  Level Indianapolis Center
04:39PM 37.6053 -82.9331 205° Southwest 433 498 34,000  Level Indianapolis Center
04:40PM 37.4953 -82.9975 205° Southwest 433 498 34,000  Level Indianapolis Center
04:41PM 37.3675 -83.0714 205° Southwest 433 498 34,000  Level Indianapolis Center
04:42PM 37.2575 -83.1347 205° Southwest 433 498 34,000  Level Indianapolis Center
04:43PM 37.1500 -83.1972 205° Southwest 432 497 34,000  Level Indianapolis Center
04:44PM 37.0431 -83.2575 204° Southwest 428 493 34,000  Level Indianapolis Center
04:45PM 36.9183 -83.3286 205° Southwest 427 491 34,000  Level Indianapolis Center
04:46PM 36.8094 -83.3889 204° Southwest 427 491 34,000  Level Indianapolis Center
04:47PM 36.7011 -83.4506 205° Southwest 427 491 34,000  Level Indianapolis Center
04:48PM 36.5925 -83.5119 204° Southwest 428 493 34,000  Level Indianapolis Center
04:49PM 36.4667 -83.5811 204° Southwest 428 493 34,000  Level Indianapolis Center
04:50PM 36.3553 -83.6444 205° Southwest 435 501 34,000  Level Indianapolis Center
04:51PM 36.2431 -83.7044 203° Southwest 436 502 34,000  Level Indianapolis Center
04:52PM 36.1061 -83.7869 206° Southwest 438 504 34,000  Level Atlanta Center
04:53PM 35.9914 -83.8464 203° Southwest 438 504 34,000  Level Atlanta Center
04:56PM 35.2829 -84.0456 191° South 459 528 34,000  Level FlightAware ADS-B (KDZJ)
04:57PM 35.1821 -84.0698 191° South 474 545 34,000  Level FlightAware ADS-B (KDZJ)
04:58PM 35.0962 -84.0903 191° South 474 545 34,000  Level FlightAware ADS-B (KDZJ)
04:58PM 35.0072 -84.1116 191° South 473 544 34,000  Level FlightAware ADS-B (KDZJ)
04:59PM 34.9251 -84.1312 191° South 474 545 34,000  Level FlightAware ADS-B (KDZJ)
05:00PM 34.8400 -84.1515 191° South 475 547 34,000  Level FlightAware ADS-B (KDZJ)
05:00PM 34.7518 -84.1724 191° South 475 547 34,000  Level FlightAware ADS-B (KDZJ)
05:01PM 34.6649 -84.1929 191° South 474 545 34,000 -120 Level FlightAware ADS-B (KDZJ)
05:02PM 34.5820 -84.2125 191° South 473 544 33,900 -360 Descending FlightAware ADS-B (KDZJ)
05:02PM 34.4949 -84.2331 191° South 474 545 33,600 -540 Descending FlightAware ADS-B (KDZJ)
05:03PM 34.4025 -84.2549 191° South 473 544 33,200 -480 Descending FlightAware ADS-B (KDZJ)
05:04PM 34.3213 -84.2739 191° South 456 525 33,000 -180 Descending FlightAware ADS-B (KDZJ)
05:04PM 34.2344 -84.2944 191° South 461 531 33,000  Level FlightAware ADS-B (KDZJ)
05:05PM 34.1506 -84.3139 191° South 462 532 33,000  Level FlightAware ADS-B (KDZJ)
05:06PM 34.0621 -84.3346 191° South 461 531 33,000  Level FlightAware ADS-B (KDZJ)
05:06PM 33.9948 -84.3503 191° South 461 531 33,000  Level FlightAware ADS-B (KDZJ)
05:07PM 34.2114 -84.3000 191° South 473 544 33,000  Level Atlanta Center
05:08PM 34.0883 -84.3297 191° South 468 539 33,000  Level Atlanta Center
05:09PM 33.9567 -84.3619 191° South 468 539 33,000  Level Atlanta Center
05:10PM 33.8333 -84.3914 191° South 463 533 33,000  Level Atlanta Center
05:11PM 33.7122 -84.4158 190° South 477 549 33,000  Level Atlanta Center
05:12PM 33.5869 -84.4353 187° South 477 549 33,000  Level Atlanta Center
05:13PM 33.4556 -84.4322 179° South 476 548 33,000  Level Atlanta Center
05:14PM 33.3072 -84.4314 180° South 476 548 33,000  Level Atlanta Center
05:15PM 33.1736 -84.4308 180° South 476 548 33,000  Level Atlanta Center
05:16PM 33.0422 -84.4278 179° South 476 548 33,000  Level Atlanta Center
05:17PM 32.9108 -84.4200 177° South 476 548 33,000  Level Atlanta Center
05:18PM 32.7772 -84.4217 181° South 476 548 33,000  Level Atlanta Center
05:19PM 32.6414 -84.4186 179° South 476 548 33,000  Level Atlanta Center
05:20PM 32.5078 -84.4156 179° South 476 548 33,000  Level Atlanta Center
05:21PM 32.3764 -84.4128 179° South 476 548 33,000  Level Atlanta Center
05:22PM 32.2408 -84.4097 179° South 476 548 33,000  Level Atlanta Center
05:23PM 32.1050 -84.4067 179° South 476 548 33,000  Level Atlanta Center
05:26PM 31.7631 -84.4003 179° South 472 543 33,000  Level Jacksonville Center
05:27PM 31.6294 -84.3956 178° South 477 549 33,000  Level Jacksonville Center
05:28PM 31.4958 -84.3958 180° South 477 549 33,000  Level Jacksonville Center
05:29PM 31.3622 -84.3914 178° South 477 549 33,000  Level Jacksonville Center
05:30PM 31.2286 -84.3867 178° South 477 549 33,000  Level Jacksonville Center
05:31PM 31.0972 -84.3847 179° South 477 549 33,000  Level Jacksonville Center
05:32PM 30.9636 -84.3825 179° South 477 549 33,000  Level Jacksonville Center
05:33PM 30.8278 -84.3781 178° South 477 549 33,000  Level Jacksonville Center
05:39PM 30.0610 -84.0501 151° Southeast 498 573 33,000  Level FlightAware ADS-B (KTLH)
05:39PM 29.9980 -84.0092 151° Southeast 498 573 33,000  Level FlightAware ADS-B (KTLH)
05:40PM 29.9255 -83.9622 151° Southeast 498 573 33,000  Level FlightAware ADS-B (KTLH)
05:41PM 29.8367 -83.9053 151° Southeast 495 570 33,000  Level Jacksonville Center
05:42PM 29.7161 -83.8300 152° Southeast 495 570 33,000  Level Jacksonville Center
05:43PM 29.5933 -83.7500 150° Southeast 500 575 33,000  Level Jacksonville Center
05:44PM 29.4728 -83.6725 151° Southeast 500 575 33,000  Level Jacksonville Center
05:45PM 29.3503 -83.5931 151° Southeast 499 574 33,000  Level Jacksonville Center
05:46PM 29.2294 -83.5161 151° Southeast 499 574 33,000  Level Jacksonville Center
05:47PM 29.1047 -83.4369 151° Southeast 499 574 33,000  Level Jacksonville Center
05:48PM 28.9839 -83.3625 152° Southeast 494 568 33,000  Level Jacksonville Center
05:53PM 28.3774 -82.9766 151° Southeast 509 586 33,000  Level FlightAware ADS-B (KMCO)
05:54PM 28.2143 -82.8748 151° Southeast 507 583 33,000  Level FlightAware ADS-B (KMCO)
05:56PM 27.9848 -82.7321 151° Southeast 510 587 33,000  Level FlightAware ADS-B (KMCO)
05:58PM 27.7622 -82.5884 154° Southeast 509 586 33,000  Level FlightAware ADS-B (KMCO)
05:58PM 27.7070 -82.5690 168° South 503 579 33,000  Level FlightAware ADS-B (KMCO)
05:58PM 27.6766 -82.5662 180° South 495 570 33,000  Level FlightAware ADS-B (KMCO)
06:00PM 27.4858 -82.5647 180° South 497 572 33,000  Level Miami Center
06:06PM 26.6741 -82.5530 179° South 500 575 33,000  Level FlightAware ADS-B (KMCO)
06:07PM 26.5296 -82.5511 179° South 498 573 33,000  Level FlightAware ADS-B (KMCO)
06:07PM 26.4440 -82.5500 179° South 496 571 33,000  Level FlightAware ADS-B (KMCO)
06:09PM 26.1835 -82.5466 179° South 498 573 33,000  Level FlightAware ADS-B (KMCO)
06:11PM 25.9355 -82.5434 179° South 497 572 33,000  Level FlightAware ADS-B (KMCO)
06:12PM 25.8388 -82.5421 179° South 496 571 33,000  Level FlightAware ADS-B (KMCO)
06:13PM 25.6731 -82.5400 179° South 497 572 33,000  Level FlightAware ADS-B (KMCO)
06:14PM 25.5003 -82.5378 179° South 496 571 33,000  Level Miami Center
06:15PM 25.3631 -82.5361 179° South 495 570 33,000  Level Miami Center
06:17PM 25.1967 -82.5343 179° South  Level FlightAware Approximate
06:24PM 24.3242 -82.5167 180° South  Level FlightAware Approximate
06:25PM 24.1994 -82.5167 180° South  Level FlightAware Approximate
06:26PM 24.0746 -82.5167 180° South  Level FlightAware Approximate
06:27PM 23.9503 -82.5096 173° South  Level FlightAware Approximate
06:28PM 23.8266 -82.4919 173° South  Level FlightAware Approximate
06:29PM 23.7026 -82.4769 175° South  Level FlightAware Approximate
06:30PM 23.5784 -82.4633 172° South  Level FlightAware Approximate
06:31PM 23.4549 -82.4443 172° South  Level FlightAware Approximate
06:32PM 23.3311 -82.4281 175° South  Level FlightAware Approximate
06:33PM 23.2068 -82.4167 180° South  Level FlightAware Approximate
06:34PM 23.0828 -82.4066 170° South  Level FlightAware Approximate
06:35PM 22.9891 -82.4091 180° South  Level Estimated
06:36PM 22.9891 -82.4091 180° South  Level Estimated
06:37PM 22.9891 -82.4091 180° South  Level Estimated
06:38PM 22.9891 -82.4091 180° South  Level Estimated
06:39PM 22.9891 -82.4091 180° South  Level Estimated
06:40PM 22.9891 -82.4091 180° South  Level Estimated
06:41PM 22.9891 -82.4091 180° South  Level Estimated
06:42PM 22.9891 -82.4091 180° South  Level Estimated
06:43PM 22.9891 -82.4091 180° South  Level Estimated
06:44PM 22.9891 -82.4091 180° South  Level Estimated
06:45PM 22.9891 -82.4091 180° South  Level Estimated
06:46PM 22.9891 -82.4091 180° South  Level Estimated
06:47PM 22.9891 -82.4091 180° South  Level Estimated
06:48PM 22.9891 -82.4091 180° South  Level Estimated
06:49PM 22.9891 -82.4091 180° South  Level Estimated
06:50PM 22.9891 -82.4091 180° South  Level Estimated
06:51PM 22.9891 -82.4091 180° South  Level Estimated
06:52PM 22.9891 -82.4091 180° South  Level Estimated
06:53PM 22.9891 -82.4091 180° South  Level Estimated
06:54PM 22.9891 -82.4091 180° South  Level Estimated
06:55PM 22.9891 -82.4091 180° South  Level Estimated
06:56PM 22.9891 -82.4091 180° South  Level Estimated
06:57PM 22.9891 -82.4091 180° South  Level Estimated
06:58PM 22.9891 -82.4091 180° South  Level Estimated